Lid_Strength_Index
2 2 1 1 1 2 4 3 2 1 1 2 2 3 3 3 3 3 3 4 4 4 4 4 4 4 4 4 4 4 4 3
2 2 1 1 1 3 4 4 3 2 2 3 3 4 4 4 4 4 4 4 4 4 4 4 4 5 5 4 4 5 5 4
2 2 2 2 2 2 4 4 4 3 3 3 3 3 3 3 4 4 4 5 5 5 5 5 5 5 5 5 5 4 6 6
3 3 3 2 2 1 3 5 5 4 4 3 3 3 4 5 5 5 5 5 5 5 5 5 5 5 6 5 6 6 6 6
3 3 3 2 2 1 3 4 5 4 3 4 4 5 5 5 5 5 5 5 6 6 6 6 6 6 6 6 6 6 5 7
5 3 2 2 1 1 2 4 5 5 4 4 5 4 4 4 5 6 6 6 6 6 6 6 6 6 6 6 7 8 8 8
5 3 2 2 1 1 2 4 5 5 4 5 4 4 5 6 6 7 7 7 7 7 7 7 7 7 8 9 9 10 9 9
6 5 4 2 2 2 2 3 5 4 5 5 4 5 6 7 8 7 8 8 8 8 8 8 8 8 9 10 10 10 10 9
6 6 5 4 3 2 3 4 6 6 6 6 6 7 7 7 7 8 8 9 8 8 9 8 9 10 11 11 11 10 9 9
6 6 5 5 4 3 2 4 5 7 8 8 8 8 8 8 9 8 10 9 10 9 10 10 10 11 11 11 10 10 9 9
6 6 6 5 4 4 3 4 6 8 9 9 9 8 9 9 9 9 9 10 10 10 11 12 12 12 12 11 11 10 9 9
6 6 5 5 5 5 5 6 7 8 8 9 9 10 10 9 9 9 10 10 10 11 12 13 13 12 12 12 11 10 11 11
6 6 6 6 6 6 6 7 8 8 8 8 9 9 9 11 11 11 11 11 12 12 13 13 12 13 12 11 12 11 11 12
5 6 6 6 6 7 8 8 8 8 8 8 8 9 10 10 10 11 11 11 12 12 12 12 12 12 12 12 12 12 11 12
5 5 7 5 5 6 7 8 8 8 8 8 10 10 10 11 11 11 11 11 11 11 12 12 11 12 12 12 12 12 12 12
4 4 5 4 5 5 6 6 8 9 10 10 11 11 11 11 11 11 11 10 11 12 12 12 11 12 12 12 12 12 12 12
4 4 3 4 3 4 6 7 9 10 11 11 11 11 11 11 11 11 11 11 11 11 12 12 12 13 15 15 12 12 12 12
4 4 3 3 3 3 6 7 9 10 11 11 10 10 10 10 11 11 11 11 11 12 12 12 12 13 15 15 15 12 12 12
4 3 3 2 2 3 5 7 9 10 11 11 10 10 11 11 12 12 12 12 12 12 12 12 11 13 15 15 15 12 12 13